Theta_e
285 285 285 285 285 285 285 286 287 288 289 292 293 293 295 297 301 306 308 309 311 310
284 284 284 285 285 285 286 286 286 286 287 290 291 292 292 294 297 301 305 307 307 307
284 284 284 284 284 284 285 285 284 285 285 287 290 291 291 291 294 297 300 304 305 305
283 283 283 283 283 283 284 284 283 284 284 285 287 290 289 289 291 294 296 300 302 302
283 282 282 282 282 283 283 283 282 283 283 284 286 288 288 288 288 290 292 295 298 300
281 281 281 281 281 282 281 281 281 282 282 283 284 287 288 288 288 289 290 293 295 298
280 281 281 281 281 280 280 280 280 280 280 281 284 285 287 288 288 288 290 292 294 296
281 281 280 280 279 279 279 280 279 279 280 282 283 284 286 288 288 287 287 290 292 294
280 279 279 278 278 278 278 278 277 278 280 280 282 285 286 288 288 287 287 288 290 292
279 278 277 277 277 277 276 276 276 278 279 280 281 284 286 287 288 287 286 288 289 290
277 276 276 276 276 275 275 274 275 276 277 279 280 284 285 287 288 287 286 288 289 289
275 274 274 274 273 273 273 274 274 276 277 277 280 283 285 286 286 286 284 287 288 289
273 273 271 271 272 273 273 275 276 275 277 278 279 283 284 285 285 285 284 286 286 286
271 269 270 270 271 272 272 272 272 273 275 277 279 280 283 284 284 284 284 284 285 286
Wind_Speed
8 7 8 9 10 9 9 10 14 15 15 16 16 17 15 12 12 14 12 12 8 6
9 10 10 12 10 8 11 11 14 15 16 16 16 16 18 12 14 14 13 12 11 8
10 10 10 10 12 13 13 14 15 15 15 16 16 16 16 15 14 15 12 10 11 9
10 11 10 10 11 12 13 14 15 15 16 16 16 15 14 18 18 16 15 14 12 14
9 10 11 11 12 12 13 14 14 15 15 16 16 16 15 16 19 18 16 15 15 13
10 10 12 13 13 13 13 13 15 14 15 16 16 17 15 15 17 18 18 16 15 15
9 10 11 13 13 13 13 13 14 15 15 15 16 17 17 15 15 17 16 16 16 16
9 9 11 12 14 14 13 13 14 15 15 14 15 13 18 17 17 17 19 16 15 16
9 10 11 12 13 13 14 14 14 14 15 18 13 26 29 23 16 17 18 16 15 15
8 11 13 13 13 14 14 14 14 14 14 18 19 27 30 30 16 15 17 16 14 14
9 11 13 13 12 14 12 14 14 15 15 16 17 29 30 30 18 14 17 15 14 15
10 12 12 13 13 13 13 13 14 14 16 16 17 28 30 26 17 14 17 13 13 14
10 11 12 13 13 11 11 14 12 16 14 16 17 25 29 26 13 14 12 12 11 15
9 11 12 12 11 12 13 13 13 15 14 14 14 18 27 28 15 12 12 9 9 8
Wind_Direction
332 329 325 325 323 320 323 322 323 326 327 327 326 324 320 315 313 310 297 287 257 244
328 326 322 319 320 317 315 317 320 320 320 323 325 323 322 318 312 307 298 280 276 239
316 317 316 315 316 318 315 320 318 318 317 318 320 323 320 317 312 306 299 287 271 258
313 315 314 312 313 315 313 316 316 316 314 313 315 319 317 314 311 306 300 292 277 267
307 311 313 313 312 313 312 313 312 312 310 310 311 313 314 309 308 306 301 295 285 267
306 310 312 311 311 311 313 310 310 310 309 308 308 309 310 305 302 305 301 295 287 280
299 305 307 309 308 312 312 308 310 309 306 305 304 306 306 309 304 300 296 293 288 280
295 300 306 308 310 309 307 307 308 308 305 306 307 304 310 310 306 300 299 291 285 281
301 307 308 309 309 305 309 309 310 304 307 310 306 305 309 306 305 300 292 291 288 280
303 306 307 307 304 309 310 307 303 303 304 305 304 307 309 310 304 300 289 284 284 283
305 305 305 303 306 307 306 302 301 301 302 306 304 306 308 311 307 300 290 285 283 276
307 303 302 303 305 304 305 305 303 303 304 302 299 307 311 313 311 301 294 289 285 280
298 295 300 297 300 300 299 296 300 299 295 295 300 306 310 317 309 303 301 289 279 270
294 293 291 292 296 299 300 298 297 296 296 299 300 307 311 316 315 309 304 289 288 268